sat.trackr.live / text

‹ back to catalog

STARLINK-30806

NORAD 58180 · 2023-167F

PAYLOAD ACTIVE UNKNOWN

§ Identity

Operator
Country
US
Launch date
2023-10-30
Launch site
AFETR
Launch vehicle
Mass (kg)
RCS (m²)

Purposes: comms

External: N2YO · Heavens-Above · Gunter

§ Orbital elements

Epoch: 2026-09-20T07:21:45.603648Z

Period
93.23 min
Inclination
42.9915°
Eccentricity
0.0016947
Mean motion
15.44613572 rev/d
Perigee alt
421.0 km
Apogee alt
444.1 km
Semi-major
6,810.7 km
B*
2.0423e-3
RAAN
114.3714°
Arg perigee
249.4243°
Mean anomaly
110.4797°
Rev number
16,086

§ Raw data

STARLINK-308061 58180U 23167F   26263.30677782  .00098751  00000+0  20423-2 0  99922 58180  42.9915 114.3714 0016947 249.4243 110.4797 15.44613572160868

JSON: /api/v1/satellites/58180 · /tle

For live sub-satellite position, see the globe view (requires WebGL).

§ Visibility from observer

Set your observer location to see the next 7 days of passes ≥ 10°. The values pass through the URL so the page stays shareable.

No JS? Fill the form by hand. The geolocation button needs JavaScript.